Regional Weather Roundup
Issued by NWS

Home | Current Version | Previous Version | Text Only | Print | Product List | Glossary On
Versions: 1 2 3 4 5 6 7 8 9 10 11 12 13 14 15 16 17 18 19 20 21 22 23 24 25 26 27 28 29 30 31 32 33 34 35 36 37 38 39 40 41 42 43 44 45 46 47 48 49 50
000
ASUS43 KMPX 251301
RWRMN
WEATHER ROUNDUP FOR MINNESOTA
NATIONAL WEATHER SERVICE TWIN CITIES/CHANHASSEN MN
800 AM CDT SAT MAR 25 2017


NOTE: "FAIR" INDICATES FEW OR NO CLOUDS BELOW 12,000 FEET WITH NO
SIGNIFICANT WEATHER AND/OR OBSTRUCTIONS TO VISIBILITY. N/A MEANS
CURRENT SKY AND/OR WEATHER CONDITIONS ARE NOT AVAILABLE.

MNZ060>063-068>070-251400-
   Twin Cities Metro

CITY           SKY/WX    TMP DP  RH WIND       PRES   REMARKS
TWIN CITIES    CLOUDY    37  30  75 NE13      30.17S
ST PAUL        CLOUDY    37  32  82 NE9       30.19S
CRYSTAL        CLOUDY    36  29  75 NE9       30.17S
BLAINE         CLOUDY    37  34  87 NE7       30.18S
LAKEVILLE      CLOUDY    36  32  87 NE9       30.15R
EDEN PRAIRIE   CLOUDY    38  31  76 NE10      30.15S
SOUTH ST PAUL  CLOUDY    37  32  79 NE8       30.17R
LAKE ELMO      CLOUDY    36  32  87 NE7       30.19R
$$
MNZ001>005-007-008-013>017-022>024-027-028-251400-
   Northwest Minnesota

CITY           SKY/WX    TMP DP  RH WIND       PRES   REMARKS
BEMIDJI        CLOUDY    33  30  88 SE9       30.21S WCI  25
HALLOCK        CLOUDY    32  30  93 SE14      30.15S WCI  22
ROSEAU         CLOUDY    30  27  86 SE9       30.19F WCI  22
WARROAD        CLOUDY    28  25  86 SE5       30.21F WCI  23
THIEF RVR FALL CLEAR    N/A N/A N/A SE12      30.19S
CROOKSTON      CLEAR     32  28  86 SE9       30.19S WCI  24
FOSSTON        CLOUDY    30  28  93 SE3       30.19S
DETROIT LAKES  CLOUDY    34  30  86 SE14G20   30.19R WCI  24
MOORHEAD       CLEAR     28  27  93 SE3       30.18F
PARK RAPIDS    CLOUDY    34  26  72 SE12G21   30.20R WCI  25
MAHNOMEN       CLOUDY    34  29  83 SE13      30.17F WCI  25
$$
MNZ006-009>011-018-025>026-251400-
   North Central Minnesota

CITY           SKY/WX    TMP DP  RH WIND       PRES   REMARKS
BAUDETTE       CLOUDY    30  27  88 SE8       30.21F WCI  22
FLAG ISLAND    CLOUDY    28  25  86 SE6       30.21F WCI  22
INTL FALLS     CLOUDY    33  29  85 SE6       30.25S WCI  28
WASKISH        CLOUDY    32  30  93 SE5       30.22F WCI  27
BIG FORK       CLOUDY    34  28  80 SE5       30.24S WCI  30
LONGVILLE      LGT SNOW  32  30  93 CALM      30.23R
GRAND RAPIDS   CLOUDY    32  28  85 E7        30.27R WCI  26
CRANE LAKE     CLOUDY    30  28  93 CALM      30.30S
ORR            CLOUDY    30  25  80 CALM      30.24S
COOK           CLOUDY    30  28  93 CALM      30.27S
WALKER         CLOUDY    32  30  93 E5        30.22R WCI  27
$$
MNZ012-019>021-037-251400-
   Northeast Minnesota

CITY           SKY/WX    TMP DP  RH WIND       PRES   REMARKS
DULUTH         CLOUDY    32  29  88 E14G24    30.25R WCI  22
ELY            CLOUDY    30  27  86 E7        30.28R WCI  23
HIBBING        CLOUDY    31  26  82 E8        30.26R WCI  23
EVELETH        CLOUDY    32  27  80 E7        30.28R WCI  26
DULUTH HARBOR  CLOUDY    36  32  87 E21       30.29S
TWO HARBORS    CLOUDY    36  30  80 E13       30.27R
SILVER BAY     CLOUDY    32  28  86 E14G20    30.29R WCI  22
GRAND MARAIS     N/A     31  23  72 NE14G21   30.37S WCI  21
G MARAIS ARPRT CLOUDY    25  16  68 NE10      30.31R WCI  15
$$
MNZ029>031-032-039>041-046>048-054>057-064-251400-
   West Central Minnesota

CITY           SKY/WX    TMP DP  RH WIND       PRES   REMARKS
FERGUS FALLS   CLOUDY    34  28  80 SE15      30.22S WCI  24
WHEATON        CLOUDY    34  30  86 E13       30.20S WCI  25
MORRIS         CLOUDY    34  30  86 E9        30.18R WCI  26
ALEXANDRIA     CLOUDY    32  29  88 E12       30.19R WCI  23
ELBOW LAKE     CLOUDY    32  30  93 SE10      30.19S WCI  24
WADENA         CLOUDY    32  27  80 E12G20    30.20R WCI  23
GLENWOOD       CLOUDY    32  30  93 E16       30.18R WCI  21
APPLETON       CLOUDY    36  30  80 CALM      30.18R
BENSON         CLOUDY    36  28  75 SE5       30.19S
ORTONVILLE     CLOUDY    34  30  86 E7        30.17S WCI  28
MADISON        CLOUDY    37  36  93 E5        30.17S
WILLMAR        CLOUDY    36  32  87 NE12G17   30.18S
$$
MNZ033>034-036-042>043-049>051-058-059-251400-
   Central Minnesota

CITY           SKY/WX    TMP DP  RH WIND       PRES   REMARKS
ST CLOUD       CLOUDY    34  30  85 NE8       30.19S WCI  27
SAUK CENTRE    CLOUDY    32  29  89 E9G16     30.18F WCI  24
PAYNESVILLE      N/A     34  31  88 E12       30.18S WCI  25
AITKIN         CLOUDY    36  28  75 E7        30.22R
PINE RIVER     CLOUDY    34  28  80 E9        30.26R WCI  26
BRAINERD       CLOUDY    33  28  81 E7        30.22S WCI  27
STAPLES        CLOUDY    32  27  80 E7        30.21R WCI  26
LONG PRAIRIE   CLOUDY    32  28  86 E10G17    30.19S WCI  24
LITTLE FALLS   CLOUDY    32  28  86 E7        30.21F WCI  26
LITCHFIELD     CLOUDY    36  32  87 E8        30.17S
BUFFALO        CLOUDY    35  30  83 NE9       30.19S WCI  28
MAPLE LAKE     CLOUDY    36  32  86 NE9       30.18F
HUTCHINSON     CLOUDY    36  33  88 NE10      30.17S
$$
MNZ037-044-045-052-053-251400-
   East Central Minnesota

CITY           SKY/WX    TMP DP  RH WIND       PRES   REMARKS
PRINCETON      CLOUDY    36  30  80 NE7       30.20S
MORA           CLOUDY    32  28  86 E5        30.23F WCI  27
CAMBRIDGE      CLOUDY    37  28  70 NE5       30.18F
RUSH CITY      CLOUDY    34  30  86 NE7       30.21F WCI  28
MOOSE LAKE     CLOUDY    32  30  93 E3        30.23S
HINCKLEY       CLOUDY    34  32  93 NE6       30.23S WCI  29
CLOQUET        CLOUDY    32  28  86 E12       30.24S WCI  23
MCGREGOR       CLOUDY    32  30  93 E7        30.24R WCI  26
$$
MNZ071>073-080-081-089-090-097-098-251400-
   Southwest Minnesota

CITY           SKY/WX    TMP DP  RH WIND       PRES   REMARKS
MONTEVIDEO     CLOUDY    36  34  93 SE12      30.19R
GRANITE FALLS  CLOUDY    37  33  87 NE8       30.18R
CANBY          CLOUDY    35  33  93 CALM      30.17S FOG
MARSHALL       CLOUDY    34  33  96 NE6       30.16R FOG     WCI  29
REDWOOD FALLS  CLOUDY    36  31  82 E9        30.14F
OLIVIA         CLOUDY    34  32  93 E8        30.15S WCI  27
PIPESTONE      CLOUDY    34  30  86 E9G16     30.10R FOG     WCI  26
WINDOM         CLOUDY    36  34  93 NE9       30.11S FOG
WORTHINGTON    CLOUDY    34  33  96 NE17      30.10R FOG     WCI  23
JACKSON        CLOUDY    34  34 100 NE14      30.10R FOG     WCI  24
TRACY          CLOUDY    35  34  99 NE8       30.13S FOG     WCI  28
SLAYTON        CLOUDY    33  33  99 NE8       30.11S FOG     WCI  26
$$
MNZ065>067-074>077-082>085-091>093-251400-
   South Central Minnesota

CITY           SKY/WX    TMP DP  RH WIND       PRES   REMARKS
NEW ULM        CLOUDY    36  32  87 NE9       30.13S
ST JAMES       CLOUDY    36  34  93 CALM      30.14R
FAIRMONT       CLOUDY    36  34  92 NE14      30.10S FOG
GLENCOE        CLOUDY    37  34  92 NE5       30.15S
FARIBAULT      CLOUDY    37  34  87 NE10G16   30.13S
OWATONNA       CLOUDY    36  32  87 NE10      30.13R
WASECA         CLOUDY    36  34  93 NE12      30.13R
ALBERT LEA     CLOUDY    36  36 100 NE15      30.08S FOG
$$
MNZ078>079-086>088-094>096-251400-
   Southeast Minnesota

CITY           SKY/WX    TMP DP  RH WIND       PRES   REMARKS
ROCHESTER      CLOUDY    36  34  92 NE17      30.10R
RED WING       CLOUDY    37  30  75 E12       30.15R
STANTON        CLOUDY    37  33  84 NE8       30.13R
DODGE CENTER   CLOUDY    36  34  93 NE14      30.10S FOG
WINONA         CLOUDY    37  32  81 E10       30.15S
AUSTIN         CLOUDY    37  34  87 NE13G18   30.08R FOG
PRESTON        CLOUDY    35  32  90 NE13G18   30.09R FOG     WCI  26
$$
ABBREVIATIONS USED IN REMARKS
   TC - TEMPERATURES IN CELSIUS
  WCI - WIND CHILL INDEX
   HX - HEAT INDEX
  VSB - VISIBILITY
$$



USA.gov is the U.S. government's official web portal to all federal, state and local government web resources and services.